Weather History for LSGG - July, 2013

Change the Weather History Date:

Friday, July 5, 2013

  Actual Average Record
Temperature  
Mean Temperature 66 °F -  
Max Temperature 77 °F 76 °F 86 °F (2010)
Min Temperature 54 °F 53 °F 46 °F (2002)
Growing Degree Days 16 (Base 50)    
Moisture  
Dew Point 55 °F    
Average Humidity 66    
Maximum Humidity 100    
Minimum Humidity 32    
Precipitation  
Precipitation 0.00 in 0.09 in - ()
Sea Level Pressure  
Sea Level Pressure 30.30 in    
Wind  
Wind Speed 4 mph ()    
Max Wind Speed 13 mph    
Max Gust Speed -    
Visibility 6.2 miles    
Events      
Averages and records for this station are not official NWS values.
T = Trace of Precipitation, MM = Missing Value Source: Averaged Metar Reports

Daily Weather History Graph

Daily Weather History Graph

Search for Another Location

Airport or City:

Trip Planner

Search our weather history database for the weather conditions in past years. The results will help you decide how hot, cold, wet, or windy it might be!

Date:

Astronomy

Jul. 05, 2013 Rise Set
Actual Time 5:50 AM CEST 9:29 PM CEST
Civil Twilight 5:11 AM CEST 10:07 PM CEST
Nautical Twilight 4:20 AM CEST 10:59 PM CEST
Astronomical Twilight 3:10 AM CEST 12:08 AM CEST
Moon 3:41 AM CEST (7/5) 7:08 PM CEST (7/5)
Length of Visible Light 16h 56m
Length of Day
15h 39m
Waning Crescent, 7% of the Moon is Illuminated
Jul 5
Waning Crescent
Jul 8
New
Jul 16
First Quarter
Jul 22
Full
Jul 29
Last Quarter

Hourly Weather History & Observations

Time (CEST) Temp. Dew Point Humidity Pressure Visibility Wind Dir Wind Speed Gust Speed Precip Events Conditions
12:00 AM 60 °F 53 °F 72% 30.29 in - NE 2.3 mph - -  
12:20 AM 59.0 °F 55.4 °F 88% 30.30 in 6.2 mi Calm Calm - N/A   Scattered Clouds
12:50 AM 57.2 °F 53.6 °F 88% 30.30 in 6.2 mi Variable 2.3 mph - N/A   Partly Cloudy
1:00 AM 58 °F 54 °F 80% 30.30 in - NNE 1.2 mph - -  
1:20 AM 57.2 °F 53.6 °F 88% 30.30 in - Calm Calm - N/A   Clear
1:50 AM 57.2 °F 53.6 °F 88% 30.30 in - Calm Calm - N/A   Clear
2:00 AM 56 °F 53 °F 84% 30.31 in 22 mi NW 2.3 mph - -  
2:20 AM 55.4 °F 53.6 °F 94% 30.30 in 6.2 mi Calm Calm - N/A   Scattered Clouds
2:50 AM 57.2 °F 53.6 °F 88% 30.30 in 6.2 mi Calm Calm - N/A   Scattered Clouds
3:00 AM 57 °F 53 °F 82% 30.31 in - West 1.2 mph - -  
3:50 AM 55.4 °F 53.6 °F 94% 30.30 in 6.2 mi NW 2.3 mph - N/A   Partly Cloudy
4:00 AM 55 °F 53 °F 88% 30.31 in - West 1.2 mph - -  
4:20 AM 55.4 °F 53.6 °F 94% 30.30 in 6.2 mi SSW 1.2 mph - N/A   Partly Cloudy
4:50 AM 53.6 °F 51.8 °F 94% 30.30 in 6.2 mi Calm Calm - N/A   Partly Cloudy
5:20 AM 53.6 °F 51.8 °F 94% 30.33 in 6.2 mi Calm Calm - N/A   Scattered Clouds
5:50 AM 55.4 °F 53.6 °F 94% 30.33 in 6.2 mi Variable 2.3 mph - N/A   Scattered Clouds
6:00 AM 55 °F 52 °F 88% 30.33 in - SW 1.2 mph - -  
6:20 AM 53.6 °F 53.6 °F 100% 30.33 in 6.2 mi Calm Calm - N/A   Partly Cloudy
6:50 AM 55.4 °F 53.6 °F 94% 30.33 in 6.2 mi Calm Calm - N/A   Partly Cloudy
7:00 AM 57 °F 53 °F 82% 30.33 in - SW 2.3 mph - -  
7:20 AM 59.0 °F 55.4 °F 88% 30.33 in 6.2 mi SW 1.2 mph - N/A   Partly Cloudy
7:50 AM 62.6 °F 55.4 °F 77% 30.33 in 6.2 mi Calm Calm - N/A   Partly Cloudy
8:00 AM 61 °F 54 °F 70% 30.32 in 31 mi West 1.2 mph - -   Scattered Clouds
8:20 AM 64.4 °F 55.4 °F 73% 30.33 in 6.2 mi Variable 1.2 mph - N/A   Partly Cloudy
8:50 AM 66.2 °F 55.4 °F 68% 30.33 in 6.2 mi Variable 1.2 mph - N/A   Partly Cloudy
9:00 AM 64 °F 54 °F 62% 30.32 in - ENE 2.3 mph - -  
9:20 AM 66.2 °F 55.4 °F 68% 30.33 in 6.2 mi East 3.5 mph - N/A   Partly Cloudy
9:50 AM 68.0 °F 57.2 °F 68% 30.33 in 6.2 mi NE 5.8 mph - N/A   Partly Cloudy
10:20 AM 68.0 °F 55.4 °F 64% 30.33 in 6.2 mi NE 6.9 mph - N/A   Partly Cloudy
10:50 AM 68.0 °F 55.4 °F 64% 30.33 in 6.2 mi NE 9.2 mph - N/A   Partly Cloudy
11:20 AM 69.8 °F 55.4 °F 60% 30.33 in 6.2 mi NE 10.4 mph - N/A   Partly Cloudy
11:50 AM 69.8 °F 55.4 °F 60% 30.33 in 6.2 mi NE 11.5 mph - N/A   Partly Cloudy
12:00 PM 70 °F 54 °F 48% 30.30 in - NE 11.5 mph - -  
12:20 PM 71.6 °F 55.4 °F 57% 30.33 in 6.2 mi NE 12.7 mph - N/A   Partly Cloudy
12:50 PM 71.6 °F 55.4 °F 57% 30.33 in 6.2 mi NE 11.5 mph - N/A   Partly Cloudy
1:00 PM 72 °F 54 °F 43% 30.29 in - NE 11.5 mph - -  
1:20 PM 73.4 °F 57.2 °F 57% 30.33 in 6.2 mi NE 10.4 mph - N/A   Partly Cloudy
1:50 PM 73.4 °F 57.2 °F 57% 30.33 in 6.2 mi NE 10.4 mph - N/A   Partly Cloudy
2:00 PM 74 °F 55 °F 41% 30.27 in 28 mi NE 10.4 mph - -   Scattered Clouds
2:20 PM 75.2 °F 57.2 °F 53% 30.30 in 6.2 mi NNE 9.2 mph - N/A   Partly Cloudy
2:50 PM 75.2 °F 55.4 °F 50% 30.30 in 6.2 mi NE 10.4 mph - N/A   Partly Cloudy
3:00 PM 75 °F 55 °F 39% 30.26 in - NE 10.4 mph - -  
3:20 PM 77.0 °F 55.4 °F 47% 30.30 in 6.2 mi ENE 9.2 mph - N/A   Partly Cloudy
3:50 PM 77.0 °F 53.6 °F 44% 30.30 in 6.2 mi NE 9.2 mph - N/A   Partly Cloudy
4:00 PM 77 °F 56 °F 37% 30.25 in - NE 12.7 mph - -  
4:20 PM 77.0 °F 55.4 °F 47% 30.30 in 6.2 mi NE 10.4 mph - N/A   Partly Cloudy
4:50 PM 77.0 °F 55.4 °F 47% 30.30 in 6.2 mi NNE 10.4 mph - N/A   Partly Cloudy
5:20 PM 78.8 °F 55.4 °F 44% 30.30 in 6.2 mi NE 10.4 mph - N/A   Partly Cloudy
5:50 PM 77.0 °F 53.6 °F 44% 30.27 in 6.2 mi NE 10.4 mph - N/A   Partly Cloudy
6:00 PM 77 °F 53 °F 32% 30.23 in - NE 8.1 mph - -  
6:20 PM 77.0 °F 55.4 °F 47% 30.27 in 6.2 mi NE 9.2 mph - N/A   Partly Cloudy
6:50 PM 77.0 °F 55.4 °F 47% 30.27 in 6.2 mi NE 11.5 mph - N/A   Partly Cloudy
7:00 PM 76 °F 55 °F 37% 30.22 in - NNE 11.5 mph - -  
7:20 PM 77.0 °F 55.4 °F 47% 30.27 in 6.2 mi NE 10.4 mph - N/A   Partly Cloudy
7:50 PM 75.2 °F 57.2 °F 53% 30.27 in 6.2 mi NE 9.2 mph - N/A   Partly Cloudy
8:00 PM 74 °F 56 °F 43% 30.23 in 22 mi NNE 8.1 mph - -   Scattered Clouds
8:20 PM 75.2 °F 57.2 °F 53% 30.27 in 6.2 mi NNE 8.1 mph - N/A   Partly Cloudy
8:50 PM 73.4 °F 57.2 °F 57% 30.27 in 6.2 mi North 5.8 mph - N/A   Partly Cloudy
9:00 PM 72 °F 55 °F 44% 30.24 in - North 5.8 mph - -  
9:20 PM 69.8 °F 57.2 °F 64% 30.27 in 6.2 mi Variable 3.5 mph - N/A   Partly Cloudy
9:50 PM 68.0 °F 55.4 °F 64% 30.30 in 6.2 mi North 4.6 mph - N/A   Partly Cloudy
10:20 PM 68.0 °F 55.4 °F 64% 30.30 in - North 4.6 mph - N/A   Clear
10:50 PM 66.2 °F 55.4 °F 68% 30.30 in - NNE 3.5 mph - N/A   Clear
11:20 PM 66.2 °F 55.4 °F 68% 30.30 in - Variable 2.3 mph - N/A   Clear
11:50 PM 62.6 °F 55.4 °F 77% 30.30 in - Calm Calm - N/A   Clear